Location: ????????
(55.7667°N, 37.4833°E)
Time: 04:08:25
(UTC+00:00)

Cosmos 1697 Rocket - Pass Details

Date: 19 May 2025
Orbit: 830 x 844 km, 71.0° (Epoch: 19 June)

Event Time Altitude Azimuth Distance (km) Brightness Sun altitude
Rises 19:34:50 0° 322° (NW) 3,408 7.8 -10.7°
Reaches altitude 10° 19:37:36 10° 311° (NW) 2,471 6.3 -10.8°
Maximum altitude 19:42:17 28° 255° (WSW) 1,554 4.2 -11.1°
Drops below altitude 10° 19:46:58 10° 199° (SSW) 2,461 4.7 -11.4°
Enters shadow 19:47:39 - 195° (SSW) 2,681 4.8 -11.4°
